Home > Weather > Senftenberg > Past weeks

Flag for Germany Weather for the Past 2 Weeks in Senftenberg, Brandenburg, Germany

Now
46 °F

Clear.


Feels Like: 46 °F
Forecast: 44 / 64 °F
Wind: 1 mph from East

Location: Dresden-Klotzsche

Current Time: May 3, 2016 at 1:19:54 AM

Latest Report: May 3, 2016 at 12:20 AM


Visibility: 10 mi

Pressure: 30.12 "Hg

Humidity: 76%

Dew Point: 39 °F

Location of SenftenbergLocation

Historic Weather in Senftenberg — Graph

°F

Senftenberg Temperature Yesterday

Maximum temperature yesterday: 59 °F (at 12:20 PM)
Minimum temperature yesterday: 41 °F (at 6:50 AM)
Average temperature yesterday: 53 °F

High & Low Weather Summary for the Past Weeks

 TemperatureHumidityPressure
High64 °F (Apr 30, 3:20 PM)93% (Apr 18, 3:20 AM)30.39 "Hg (Apr 18, 3:20 AM)
Low32 °F (Apr 24, 6:20 AM)25% (Apr 30, 2:20 PM)29.47 "Hg (Apr 26, 7:50 AM)
Average45 °F64%29.99 "Hg
* Reported Apr 17 11:20 PM — May 2 11:20 PM, Senftenberg, Weather by CustomWeather, © 2016

Note: Actual official high and low records may vary slightly from our data, if they occured in-between our weather recording intervals... More about our weather records

Advertising

Senftenberg Weather History for the Previous 24 Hours

Scroll right to see more
 ConditionsComfort  
Time TempWeatherWind HumidityBarometerVisibility
11:20 PM
Mon, May 2
50 °FClear.1 mph71%30.12 "Hg10 mi
10:50 PM50 °FClear.2 mph71%30.12 "Hg10 mi
10:20 PM52 °FClear.1 mph67%30.12 "Hg10 mi
9:50 PM52 °FClear.1 mph67%30.12 "Hg10 mi
9:20 PM54 °FSunny.2 mph63%30.12 "Hg10 mi
8:50 PM55 °FPassing clouds.5 mph59%30.12 "HgN/A
8:20 PM55 °FPartly sunny.5 mph59%30.12 "HgN/A
7:50 PM57 °FSunny.8 mph55%30.12 "Hg10 mi
7:20 PM59 °FPassing clouds.5 mph51%30.12 "HgN/A
6:50 PM57 °FSunny.8 mph55%30.15 "Hg10 mi
6:20 PM59 °FBroken clouds.9 mph48%30.15 "HgN/A
5:50 PM59 °FPassing clouds.8 mph48%30.15 "HgN/A
5:20 PM59 °FPartly sunny.7 mph51%30.15 "HgN/A
4:50 PM59 °FPartly sunny.9 mph48%30.15 "HgN/A
4:20 PM59 °FPartly sunny.12 mph48%30.18 "HgN/A
3:50 PM59 °FPartly sunny.8 mph48%30.18 "HgN/A
3:20 PM59 °FPartly sunny.10 mph48%30.18 "HgN/A
2:50 PM59 °FPartly sunny.10 mph48%30.18 "HgN/A
2:20 PM59 °FPartly sunny.9 mph48%30.18 "HgN/A
1:50 PM59 °FPartly sunny.9 mph48%30.21 "HgN/A
1:20 PM59 °FPartly sunny.12 mph51%30.21 "HgN/A
12:50 PM57 °FPartly sunny.12 mph51%30.21 "HgN/A
12:20 PM59 °FPartly sunny.10 mph51%30.21 "HgN/A
11:50 AM55 °FPartly sunny.9 mph59%30.21 "HgN/A
11:20 AM57 °FPartly sunny.10 mph55%30.21 "HgN/A
10:50 AM57 °FPartly sunny.10 mph55%30.21 "HgN/A
10:20 AM55 °FScattered clouds.12 mph55%30.21 "HgN/A
9:50 AM55 °FPassing clouds.7 mph59%30.24 "HgN/A
9:20 AM52 °FPassing clouds.6 mph67%30.24 "HgN/A
8:50 AM50 °FPassing clouds.3 mph71%30.24 "HgN/A
8:20 AM48 °FPassing clouds.3 mph76%30.24 "HgN/A
7:20 AM45 °FPassing clouds.2 mph87%30.24 "HgN/A
6:50 AM41 °FSunny.5 mph93%30.24 "Hg10 mi
6:20 AM43 °FClear.2 mph81%30.24 "Hg10 mi
5:50 AM43 °FClear.No wind81%30.24 "Hg10 mi
5:20 AM43 °FClear.1 mph81%30.24 "Hg10 mi
4:50 AM45 °FClear.1 mph76%30.24 "Hg10 mi
4:20 AM45 °FClear.No wind81%30.24 "Hg10 mi
3:50 AM46 °FClear.No wind71%30.24 "Hg10 mi
3:20 AM45 °FClear.1 mph76%30.24 "Hg10 mi
2:50 AM48 °FClear.1 mph66%30.24 "Hg10 mi
2:20 AM46 °FClear.1 mph71%30.24 "Hg10 mi
1:50 AM46 °FClear.2 mph71%30.24 "Hg10 mi
1:20 AM48 °FClear.1 mph66%30.24 "Hg10 mi
Weather by CustomWeather, © 2016

See weather overviewHow to use our weather pages